Regional Weather Roundup
Issued by NWS Sterling, VA

Home | Current Version | Previous Version | Text Only | Print | Product List | Glossary Off
Versions: 1 2 3 4 5 6 7 8 9 10 11 12 13 14 15 16 17 18 19 20 21 22 23 24 25 26 27 28 29 30 31 32 33 34 35 36 37 38 39 40 41 42 43 44 45 46 47 48 49 50

000
ASUS41 KLWX 250210
RWRLWX

REGIONAL WEATHER ROUNDUP
NATIONAL WEATHER SERVICE BALTIMORE MD/WASHINGTON DC
1000 PM EDT THU JUL 24 2014

Note: "FAIR" indicates few or no clouds below 12,000 feet
with no significant weather and/or obstructions to visibility.
 TC=TEMPERATURE CELSIUS

 * =Non NWS site. Station does not report precipitation (e.g. rain,
    snow, etc.), thunder, or fog.

DCZ001-MDZ009-015-VAZ040>042-051-053>054-250300-
WASHINGTON METRO
  /KDAA//-FT BELVOIR

CITY           SKY/WX    TMP DP  RH WIND       PRES   REMARKS
WASHINGTON NAT MOCLDY    75  56  51 N7        29.94R
DULLES         MOCLDY    66  59  78 CALM      29.95R
ANDREWS AFB    MOCLDY    69  59  70 N3        29.94R
QUANTICO       MOCLDY    70  67  90 NW7       29.95R
COLLEGE PARK*  MOCLDY    68  63  83 CALM      29.94R
LEESBURG*      MOCLDY    68  64  88 CALM      29.96R
MANASSAS*      CLEAR     66  66 100 CALM      29.95
GAITHERSBURG*  MOCLDY    64  59  82 CALM      29.99R

$$

MDZ006>007-011-014-250300-
BALTIMORE METRO

CITY           SKY/WX    TMP DP  RH WIND       PRES   REMARKS
BWI AIRPORT    MOCLDY    71  57  61 NW3       29.93R
MD SCIENCE CTR   N/A     75  56  51 MISG      29.94R
MARTIN STATE   MOCLDY    73  61  64 NW6       29.92
ANNAPOLIS      MOCLDY    74  62  66 N5        29.93R
FORT MEADE*    MOCLDY    63  61  94 CALM      29.96R

$$

MDZ012-015-019>023-250300-
MARYLAND EASTERN SHORE

CITY           SKY/WX    TMP DP  RH WIND       PRES   REMARKS
OCEAN CITY     CLOUDY    71  69  93 W5        29.91R
SALISBURY      NOT AVBL
BAY BRIDGE AP*   N/A     73  55  53 N9        29.93R
CAMBRIDGE*     CLOUDY    72  68  88 CALM      29.92R

$$

MDZ017>025-250300-
SOUTHERN MARYLAND

CITY           SKY/WX    TMP DP  RH WIND       PRES   REMARKS
PATUXENT RIVER CLOUDY    68  66  93 SW5       29.93R
ST INIGOES     CLOUDY    69  65  86 CALM      29.92R
LEONARDTOWN*   CLOUDY    66  64  94 CALM      29.95R

$$

MDZ003>005-250300-
NORTH CENTRAL MARYLAND

CITY           SKY/WX    TMP DP  RH WIND       PRES   REMARKS
FREDERICK*     MOCLDY    64  64 100 CALM      29.98R
HAGERSTOWN APT PTCLDY    70  53  54 N6        29.96R
WESTMINSTER*   MOCLDY    68  59  73 CALM      29.96R

$$

MDZ501>502-250300-
WESTERN MARYLAND

CITY           SKY/WX    TMP DP  RH WIND       PRES   REMARKS
OAKLAND*       CLEAR     59  52  77 CALM      30.06R
CUMBERLAND*    CLEAR     68  54  60 CALM      30.02R

$$

VAZ025>031-250300-
SHENANDOAH VALLEY

CITY           SKY/WX    TMP DP  RH WIND       PRES   REMARKS
WINCHESTER*    PTCLDY    63  57  82 CALM      29.97R
STAUNTON*      PTCLDY    66  64  93 CALM      30.00R FOG

$$

WVZ021-048>050-054>055-250300-
EASTERN WEST VIRGINIA PANHANDLE

CITY           SKY/WX    TMP DP  RH WIND       PRES   REMARKS
MARTINSBURG    PTCLDY    67  55  65 CALM      29.96R
PETERSBURG*    PTCLDY    64  57  76 CALM      30.00R

$$

VAZ036>039-050-250300-
CENTRAL FOOTHILLS

CITY           SKY/WX    TMP DP  RH WIND       PRES   REMARKS
CHARLOTTESVILL PTCLDY    67  66  97 S3        29.97R FOG
ORANGE*        MOCLDY    64  64 100 CALM      29.97R FOG

$$

VAZ055>057-250300-
NORTH AND CENTRAL PIEDMONT

CITY           SKY/WX    TMP DP  RH WIND       PRES   REMARKS
FREDERICKSBRG* CLOUDY    69  69 100 CALM      29.94R
STAFFORD*      MOCLDY    67  67 100 CALM      29.99R FOG

$$

NCZ024-NYZ072-PAZ021-071-VAZ022-071-250300-
OTHER REGIONAL OBSERVATIONS

CITY           SKY/WX    TMP DP  RH WIND       PRES   REMARKS
NEW YORK CITY  MOCLDY    75  55  49 VRB3      29.92R
PHILADELPHIA   CLOUDY    75  53  46 N12       29.91R
PITTSBURGH     PTCLDY    66  51  58 N9        30.03R
ROANOKE        CLOUDY    70  66  87 CALM      30.01R
RICHMOND       CLOUDY    71  68  90 NW5       29.95R
RALEIGH        TSTM      70  68  93 E8        29.93F

$$

ANZ530>537-250300-
MARINE OBSERVATIONS

STATION/POSITION TIME  TEMP    WIND        PRES
                       AIR SEA DIR/SP/G
                 (UTC) (F)     (DEG/KT/KT) (MB)
THOMAS PT LIGHT  0200   75 80  350/  8/  9 1013.9R
BALT KEY BRIDGE  0200   76     340/  9/ 12 1012.9R
COVE POINT       0200   71     300/  7/  8 1013.0R
LEWISETTA        0200   71 80  300/  3/  4 1013.0F
SOLOMONS ISLAND  0200      81                N/A
PINEY POINT      0200          340/  4/  5   N/A

$$




USA.gov is the U.S. government's official web portal to all federal, state and local government web resources and services.